Miscellaneous Local Product
Issued by NWS North Platte, NE

Home | Current Version | Previous Version | Graphics & Text | Print | Product List | Glossary On
Versions: 1 2 3 4 5 6 7 8 9 10 11 12 13 14 15 16 17 18 19 20 21 22 23 24 25 26 27 28 29 30 31 32 33 34 35 36 37 38 39 40 41 42 43 44 45 46 47 48 49 50
915
AXUS43 KLBF 251610
MISLBF


WESTERN AND NORTH CENTRAL NEBRASKA HOURLY WEATHER ROUNDUP
NATIONAL WEATHER SERVICE NORTH PLATTE NE
1100 AM CDT TUE JUL 25 2017

NOTE: "FAIR" INDICATES FEW OR NO CLOUDS BELOW 12,000 FEET WITH NO
SIGNIFICANT WEATHER AND/OR OBSTRUCTIONS TO VISIBILITY.

NOTE: STATIONS NOT REPORTING VARIABLES SUCH AS SKY/WEATHER OR
PRESSURE ARE PROVIDED BY RAWS AND APRS NETWORKS AND ARE NOT UNDER
NATIONAL WEATHER SERVICE QUALITY CONTROL.

...OBSERVATIONS IN AND NEAR THE EASTERN PANHANDLE OF NEBRASKA...

CITY           SKY/WX    TMP DP  RH WIND       PRES   REMARKS
PINE RIDGE     CLOUDY    86  63  45 N3        29.95R
GORDON         FAIR      82  65  57 W6        29.96S
CHADRON        CLOUDY    85  53  33 VRB3      29.95R
ALLIANCE       MOSUNNY   87  60  40 S9        29.98R
SIDNEY         SUNNY     85  61  44 S9        30.02F
CRESCENT LAKE    N/A     83  65  54 S6          N/A
$$

...OBSERVATIONS IN NORTHERN NEBRASKA AND FAR SOUTHERN SOUTH DAKOTA...

CITY           SKY/WX    TMP DP  RH WIND       PRES   REMARKS
WINNER         FAIR      91  64  40 S10       29.88S HX  92
VALENTINE      CLOUDY    94  60  32 SW12G17   29.91R HX  94
THEDFORD       MOSUNNY   92  64  39 S18       29.96S HX  93
AINSWORTH      SUNNY     91  64  40 SW17      29.92S HX  93
O`NEILL        SUNNY     90  67  47 S17G26    29.93S HX  93
ORD            SUNNY     88  66  48 S18G25    29.95S HX  90
BROKEN BOW     SUNNY     90  67  46 S16G23    29.98S HX  93
VALENTINE NWR    N/A     87  64  45 SW14G22     N/A
HALSEY           N/A     88  63  43 S9G18       N/A
BUTTE            N/A     86  68  55 SW7G17      N/A
CHAMBERS         N/A     91  65  42 W12         N/A  HX  93
EWING            N/A     88  70  55 S15G24      N/A  HX  93
$$

...OBSERVATIONS IN SOUTHWEST NEBRASKA AND FAR NORTHEAST COLORADO...

CITY           SKY/WX    TMP DP  RH WIND       PRES   REMARKS
HOLYOKE        FAIR      86  66  51 S8        30.00F
IMPERIAL       SUNNY     90  62  39 S12       29.98F HX  90
OGALLALA       SUNNY     87  64  47 SE9       29.98F
NORTH PLATTE   CLOUDY    87  68  52 S9        29.97F HX  90
MCCOOK         SUNNY     91  67  44 S13       29.98F HX  94
LEXINGTON      SUNNY     84  69  60 S13       29.99F
STAPLETON        N/A     86  67  52 CALM        N/A
GOTHENBURG       N/A     84  63  48 S7          N/A
CALLAWAY         N/A     84  69  61 S13         N/A
$$

...OBSERVATIONS IN CENTRAL LINCOLN COUNTY AREA...

CITY           SKY/WX    TMP DP  RH WIND       PRES   REMARKS
N.P. AIRPORT   CLOUDY    87  68  52 S9        29.97F HX  90
N.P. DOWNTOWN    N/A     87  68  53 S3          N/A  HX  90
N.P. HILLCREST   N/A     86  67  52 SW9         N/A
$$

...SOME OBSERVATIONS FROM AROUND THE REGION...

CITY           SKY/WX    TMP DP  RH WIND       PRES   REMARKS
DENVER         CLOUDY    84  44  24 W12       30.10R
LIMON          SUNNY     78  60  53 SE8       30.13R
ASPEN          CLOUDY    63  53  70 N5        30.34F
LARAMIE        CLOUDY    70  48  45 NE7       30.26R
CASPER         CLOUDY    75  45  34 SW7       30.14R
CHEYENNE       MOSUNNY   81  45  28 N13G21    30.15R
SCOTTSBLUFF    PTSUNNY   85  54  34 VRB3      29.98S
GRAND ISLAND   SUNNY     88  71  57 S17       30.00S HX  94
OMAHA          MOSUNNY   84  69  60 SE14      30.01S
SIOUX FALLS    PTSUNNY   82  72  71 SW12      29.92R
PIERRE         MOSUNNY   87  65  47 NE12G21   29.87R
RAPID CITY     CLOUDY    83  56  39 NE12      29.97R
BISMARCK       CLOUDY    77  60  55 N13G22    29.93R
KANSAS CITY    SUNNY     86  71  60 S8        30.08S HX  91
HILL CITY      SUNNY     89  70  53 S14G24    30.02S HX  94
WICHITA        MOSUNNY   90  70  51 S16       30.06S HX  95
DODGE CITY     SUNNY     89  67  47 S20G25    30.06S HX  92
OKLAHOMA CITY  SUNNY     89  67  47 S13       30.08S HX  92
DALLAS         MOSUNNY   87  75  67 S8        30.07S HX  96
AMARILLO       MOSUNNY   88  59  37 S18       30.14S
$$




USA.gov is the U.S. government's official web portal to all federal, state and local government web resources and services.